Location: Bishop's University Astronomical Observatory
(45.3661°N, 71.8475°W)
Time: 13:52:59
(UTC-04:00)

CZ-4C R/B - Visible Passes

Search period start: 30 September 2014 00:00
Search period end: 10 October 2014 00:00
Orbit: 787 x 1215 km, 63.5° (Epoch: 29 September)

Date Brightness Start Highest point End Pass type
(mag) Time Alt. Az. Time Alt. Az. Time Alt. Az.
30 Sep 3.1 03:53:19 37° SE 03:54:15 40° ESE 03:59:46 10° NE visible
30 Sep 2.8 05:38:33 16° WSW 05:42:43 43° NW 05:48:38 10° NNE visible
01 Oct 4.7 02:41:11 13° E 02:41:11 13° E 02:43:00 10° ENE visible
01 Oct 2.2 04:26:24 57° SSW 04:27:37 85° SE 04:33:45 10° NE visible
01 Oct 3.6 06:12:08 10° W 06:16:58 26° NNW 06:22:13 10° NNE visible
02 Oct 3.7 03:14:11 30° E 03:14:11 30° E 03:18:22 10° NE visible
02 Oct 2.6 04:59:24 35° W 05:01:24 50° NW 05:07:26 10° NNE visible
03 Oct 2.5 03:47:08 64° ENE 03:47:08 64° ENE 03:52:29 10° NE visible
03 Oct 3.4 05:32:21 18° W 05:35:33 29° NNW 05:41:00 10° NNE visible
04 Oct 4.5 02:34:49 19° ENE 02:34:49 19° ENE 02:36:53 10° ENE visible
04 Oct 2.4 04:20:02 59° NW 04:20:06 59° NW 04:26:13 10° NNE visible
04 Oct 4.0 06:05:45 10° WNW 06:10:03 20° NNW 06:14:40 10° NNE visible
05 Oct 3.7 03:07:41 34° ENE 03:07:41 34° ENE 03:11:11 10° NE visible
05 Oct 3.2 04:52:53 30° WNW 04:54:10 33° NW 04:59:48 10° NNE visible
06 Oct 5.1 01:55:17 10° ENE 01:55:17 10° ENE 01:55:20 10° ENE visible
06 Oct 3.0 03:40:29 47° NNE 03:40:29 47° NNE 03:44:59 10° NE visible
06 Oct 3.9 05:25:41 16° WNW 05:28:35 22° NNW 05:33:25 10° NNE visible
07 Oct 4.6 02:28:04 19° NE 02:28:04 19° NE 02:29:52 10° NE visible
07 Oct 3.2 04:13:16 37° NNW 04:13:16 37° NNW 04:18:35 10° NNE visible
07 Oct 4.3 05:59:28 10° NW 06:03:17 17° NNW 06:07:20 10° NNE visible
08 Oct 4.0 03:00:49 29° NE 03:00:49 29° NE 03:03:45 10° NE visible
08 Oct 3.7 04:46:01 23° NW 04:47:07 24° NNW 04:52:11 10° NNE visible
09 Oct 5.1 01:48:21 11° NE 01:48:21 11° NE 01:48:30 10° NE visible
09 Oct 3.7 03:33:33 32° N 03:33:33 32° N 03:37:23 10° NNE visible
09 Oct 4.2 05:18:44 13° NW 05:21:46 18° NNW 05:26:00 10° NNE visible
